,,Stat5,,Stat1,,Stat2,,Stat3,,Stat4,,Wind1,,Wind1,
time,status,PA1M_AVG,status,PR1M_SUM,status,RH1M_AVG,status,SR1M_AVG,status,TA1M_AVG,status,W1dAve1m,status,W1sAve1m,
2003-04-07, 00:00:00,VALID,918.958,VALID,0,VALID,98.571,VALID,0.186789,VALID,20.5118,VALID,93,VALID,0.561444,
2003-04-07, 00:01:00,VALID,918.927,VALID,0,VALID,98.5761,VALID,0.169808,VALID,20.5053,VALID,84,VALID,0.563151,
2003-04-07, 00:02:00,VALID,918.903,VALID,0,VALID,98.5989,VALID,0.186789,VALID,20.5018,VALID,64,VALID,0.643914,
2003-04-07, 00:03:00,VALID,918.875,VALID,0,VALID,98.5595,VALID,0.20377,VALID,20.5023,VALID,84,VALID,0.496595,
2003-04-07, 00:04:00,VALID,918.852,VALID,0,VALID,98.5265,VALID,0.169808,VALID,20.4892,VALID,86,VALID,0.70847,
2003-04-07, 00:05:00,VALID,918.842,VALID,0,VALID,98.5176,VALID,0.135847,VALID,20.4824,VALID,81,VALID,0.685497,
2003-04-07, 00:06:00,VALID,918.816,VALID,0,VALID,98.4629,VALID,0.152827,VALID,20.4628,VALID,67,VALID,0.516226,
2003-04-07, 00:07:00,VALID,918.804,VALID,0,VALID,98.5265,VALID,0.20377,VALID,20.4757,VALID,65,VALID,0.335938,
2003-04-07, 00:08:00,VALID,918.765,VALID,0,VALID,98.585,VALID,0.186789,VALID,20.4824,VALID,51,VALID,0.465666,
2003-04-07, 00:09:00,VALID,918.743,VALID,0,VALID,98.5494,VALID,0.220751,VALID,20.472,VALID,42,VALID,0.898026,
2003-04-07, 00:10:00,VALID,918.716,VALID,0,VALID,98.5544,VALID,0.20377,VALID,20.4725,VALID,45,VALID,0.409926,
2003-04-07, 00:11:00,VALID,918.663,VALID,0,VALID,98.557,VALID,0.20377,VALID,20.4628,VALID,44,VALID,0.331641,
2003-04-07, 00:12:00,VALID,918.624,VALID,0,VALID,98.5621,VALID,0.20377,VALID,20.4625,VALID,53,VALID,0.432221,
2003-04-07, 00:13:00,VALID,918.624,VALID,0,VALID,98.515,VALID,0.20377,VALID,20.4431,VALID,66,VALID,0.407072,
2003-04-07, 00:14:00,VALID,918.619,VALID,0,VALID,98.4807,VALID,0.20377,VALID,20.4369,VALID,75,VALID,0.14597,
2003-04-07, 00:15:00,VALID,918.606,VALID,0,VALID,98.529,VALID,0.20377,VALID,20.427,VALID,75,VALID,0.000200321,
2003-04-07, 00:16:00,VALID,918.599,VALID,0,VALID,98.5277,VALID,0.20377,VALID,20.4272,VALID,104,VALID,0.118164,
2003-04-07, 00:17:00,VALID,918.614,VALID,0,VALID,98.6307,VALID,0.20377,VALID,20.4571,VALID,72,VALID,0.215794,
2003-04-07, 00:18:00,VALID,918.609,VALID,0,VALID,98.7058,VALID,0.237732,VALID,20.4692,VALID,39,VALID,0.51242,
2003-04-07, 00:19:00,VALID,918.605,VALID,0,VALID,98.7147,VALID,0.220751,VALID,20.5013,VALID,22,VALID,1.05389,
2003-04-07, 00:20:00,VALID,918.604,VALID,0,VALID,98.6167,VALID,0.20377,VALID,20.4757,VALID,18,VALID,1.20566,
2003-04-07, 00:21:00,VALID,918.598,VALID,0,VALID,98.5748,VALID,0.20377,VALID,20.4523,VALID,15,VALID,0.923986,
2003-04-07, 00:22:00,VALID,918.595,VALID,0,VALID,98.529,VALID,0.220751,VALID,20.4272,VALID,11,VALID,0.980078,
2003-04-07, 00:23:00,VALID,918.59,VALID,0,VALID,98.5939,VALID,0.220751,VALID,20.4118,VALID,22,VALID,0.607077,
2003-04-07, 00:24:00,VALID,918.57,VALID,0,VALID,98.7287,VALID,0.20377,VALID,20.4116,VALID,22,VALID,0.331209,
2003-04-07, 00:25:00,VALID,918.553,VALID,0,VALID,98.8062,VALID,0.220751,VALID,20.424,VALID,22,VALID,0.17528,
2003-04-07, 00:26:00,VALID,918.547,VALID,0,VALID,98.8889,VALID,0.220751,VALID,20.4474,VALID,22,VALID,0.234786,
2003-04-07, 00:27:00,VALID,918.535,VALID,0,VALID,98.8685,VALID,0.220751,VALID,20.4307,VALID,22,VALID,0.0279605,
2003-04-07, 00:28:00,VALID,918.519,VALID,0,VALID,98.8634,VALID,0.237732,VALID,20.4175,VALID,22,VALID,0.0243902,
2003-04-07, 00:29:00,VALID,918.514,VALID,0,VALID,98.9232,VALID,0.20377,VALID,20.4073,VALID,22,VALID,0.179688,
2003-04-07, 00:30:00,VALID,918.518,VALID,0,VALID,99.0504,VALID,0.237732,VALID,20.4466,VALID,22,VALID,0.154605,
2003-04-07, 00:31:00,VALID,918.499,VALID,0,VALID,99.1508,VALID,0.220751,VALID,20.5016,VALID,22,VALID,0.0276442,
2003-04-07, 00:32:00,VALID,918.5,VALID,0,VALID,99.1724,VALID,0.237732,VALID,20.5342,VALID,22,VALID,0.0895433,
2003-04-07, 00:33:00,VALID,918.473,VALID,0,VALID,99.0834,VALID,0.220751,VALID,20.5148,VALID,22,VALID,0.277644,
2003-04-07, 00:34:00,VALID,918.445,VALID,0,VALID,99.0148,VALID,0.20377,VALID,20.4695,VALID,22,VALID,0.196752,
2003-04-07, 00:35:00,VALID,918.426,VALID,0,VALID,98.969,VALID,0.20377,VALID,20.4275,VALID,25,VALID,0.370477,
2003-04-07, 00:36:00,VALID,918.391,VALID,0,VALID,99.0516,VALID,0.169808,VALID,20.4213,VALID,26,VALID,0.35386,
2003-04-07, 00:37:00,VALID,918.376,VALID,0,VALID,99.1318,VALID,0.169808,VALID,20.4339,VALID,26,VALID,0.45918,
2003-04-07, 00:38:00,VALID,918.352,VALID,0,VALID,99.0377,VALID,0.20377,VALID,20.4041,VALID,26,VALID,0.287212,
2003-04-07, 00:39:00,VALID,918.352,VALID,0,VALID,98.9703,VALID,0.20377,VALID,20.3887,VALID,55,VALID,0.493707,
2003-04-07, 00:40:00,VALID,918.326,VALID,0,VALID,98.8787,VALID,0.186789,VALID,20.3297,VALID,103,VALID,0.559755,
2003-04-07, 00:41:00,VALID,918.333,VALID,0,VALID,98.8851,VALID,0.186789,VALID,20.2944,VALID,122,VALID,0.753125,
2003-04-07, 00:42:00,VALID,918.332,VALID,0,VALID,98.913,VALID,0.169808,VALID,20.2653,VALID,123,VALID,0.665625,
2003-04-07, 00:43:00,VALID,918.329,VALID,0,VALID,98.9486,VALID,0.186789,VALID,20.2529,VALID,132,VALID,0.69972,
2003-04-07, 00:44:00,VALID,918.315,VALID,0,VALID,98.9919,VALID,0.169808,VALID,20.2402,VALID,109,VALID,0.396484,
2003-04-07, 00:45:00,VALID,918.307,VALID,0,VALID,99.0313,VALID,0.152827,VALID,20.23,VALID,114,VALID,0.43457,
2003-04-07, 00:46:00,VALID,918.289,VALID,0,VALID,99.0593,VALID,0.152827,VALID,20.237,VALID,87,VALID,0.283995,
2003-04-07, 00:47:00,VALID,918.265,VALID,0,VALID,99.1025,VALID,0.169808,VALID,20.2308,VALID,80,VALID,0.271326,
2003-04-07, 00:48:00,VALID,918.25,VALID,0,VALID,99.0631,VALID,0.20377,VALID,20.2069,VALID,80,VALID,0.455469,
2003-04-07, 00:49:00,VALID,918.21,VALID,0,VALID,99.0542,VALID,0.186789,VALID,20.2074,VALID,79,VALID,0.160268,
2003-04-07, 00:50:00,VALID,918.212,VALID,0,VALID,99.0974,VALID,0.186789,VALID,20.2241,VALID,77,VALID,0.376563,
2003-04-07, 00:51:00,VALID,918.216,VALID,0,VALID,99.0097,VALID,0.169808,VALID,20.2044,VALID,93,VALID,0.46254,
2003-04-07, 00:52:00,VALID,918.225,VALID,0,VALID,98.9779,VALID,0.169808,VALID,20.1788,VALID,125,VALID,0.589227,
2003-04-07, 00:53:00,VALID,918.241,VALID,0,VALID,98.9842,VALID,0.135847,VALID,20.1624,VALID,134,VALID,0.754112,
2003-04-07, 00:54:00,VALID,918.232,VALID,0,VALID,98.9817,VALID,0.118866,VALID,20.153,VALID,140,VALID,0.622196,
2003-04-07, 00:55:00,VALID,918.233,VALID,0,VALID,98.9868,VALID,0.118866,VALID,20.153,VALID,117,VALID,0.430469,
2003-04-07, 00:56:00,VALID,918.215,VALID,0,VALID,99.0364,VALID,0.118866,VALID,20.1694,VALID,119,VALID,0.368666,
2003-04-07, 00:57:00,VALID,918.186,VALID,0,VALID,98.9652,VALID,0.118866,VALID,20.1565,VALID,125,VALID,0.473758,
2003-04-07, 00:58:00,VALID,918.168,VALID,0,VALID,98.9563,VALID,0.118866,VALID,20.1368,VALID,149,VALID,0.600361,
2003-04-07, 00:59:00,VALID,918.133,VALID,0,VALID,98.9715,VALID,0.135847,VALID,20.1373,VALID,159,VALID,0.364865,
2003-04-07, 01:00:00,VALID,918.103,VALID,0,VALID,99.0008,VALID,0.118866,VALID,20.1303,VALID,155,VALID,0.35853,
2003-04-07, 01:01:00,VALID,918.087,VALID,0,VALID,99.0186,VALID,0.118866,VALID,20.1303,VALID,125,VALID,0.419336,
2003-04-07, 01:02:00,VALID,918.078,VALID,0,VALID,99.0046,VALID,0.169808,VALID,20.1341,VALID,105,VALID,0.615579,
2003-04-07, 01:03:00,VALID,918.072,VALID,0,VALID,99.0224,VALID,0.101885,VALID,20.104,VALID,113,VALID,0.601768,
2003-04-07, 01:04:00,VALID,918.074,VALID,0,VALID,99.0453,VALID,0.152827,VALID,20.1075,VALID,112,VALID,0.753606,
2003-04-07, 01:05:00,VALID,918.071,VALID,0,VALID,99.1089,VALID,0.135847,VALID,20.0983,VALID,120,VALID,0.596217,
2003-04-07, 01:06:00,VALID,918.073,VALID,0,VALID,99.1534,VALID,0.101885,VALID,20.0881,VALID,108,VALID,0.657895,
2003-04-07, 01:07:00,VALID,918.056,VALID,0,VALID,99.2398,VALID,0.101885,VALID,20.1045,VALID,127,VALID,0.501334,
2003-04-07, 01:08:00,VALID,918.041,VALID,0,VALID,99.2297,VALID,0.101885,VALID,20.1114,VALID,98,VALID,0.534054,
2003-04-07, 01:09:00,VALID,918.024,VALID,0,VALID,99.236,VALID,0.135847,VALID,20.1047,VALID,68,VALID,0.695107,
2003-04-07, 01:10:00,VALID,917.988,VALID,0,VALID,99.1979,VALID,0.118866,VALID,20.0883,VALID,77,VALID,0.804487,
2003-04-07, 01:11:00,VALID,917.949,VALID,0,VALID,99.2271,VALID,0.118866,VALID,20.0824,VALID,55,VALID,0.894631,
2003-04-07, 01:12:00,VALID,917.92,VALID,0,VALID,99.2386,VALID,0.118866,VALID,20.0722,VALID,48,VALID,0.627804,
2003-04-07, 01:13:00,VALID,917.893,VALID,0,VALID,99.1953,VALID,0.135847,VALID,20.0423,VALID,72,VALID,0.69449,
2003-04-07, 01:14:00,VALID,917.861,VALID,0,VALID,99.1737,VALID,0.118866,VALID,20.0304,VALID,65,VALID,0.593956,
2003-04-07, 01:15:00,VALID,917.836,VALID,0,VALID,99.1279,VALID,0.135847,VALID,20.0145,VALID,89,VALID,0.55216,
2003-04-07, 01:16:00,VALID,917.827,VALID,0,VALID,99.1025,VALID,0.101885,VALID,19.9854,VALID,127,VALID,0.620898,
2003-04-07, 01:17:00,VALID,917.839,VALID,0,VALID,99.1216,VALID,0.118866,VALID,19.972,VALID,134,VALID,0.844161,
2003-04-07, 01:18:00,VALID,917.845,VALID,0,VALID,99.1445,VALID,0.0849042,VALID,19.969,VALID,137,VALID,0.726563,
2003-04-07, 01:19:00,VALID,917.844,VALID,0,VALID,99.1432,VALID,0.101885,VALID,19.9754,VALID,138,VALID,0.940034,
2003-04-07, 01:20:00,VALID,917.857,VALID,0,VALID,99.1483,VALID,0.101885,VALID,19.9695,VALID,159,VALID,1.26816,
2003-04-07, 01:21:00,VALID,917.858,VALID,0,VALID,99.1813,VALID,0.118866,VALID,19.9754,VALID,152,VALID,1.10215,
2003-04-07, 01:22:00,VALID,917.843,VALID,0,VALID,99.2004,VALID,0.0849042,VALID,19.9816,VALID,141,VALID,0.933894,
2003-04-07, 01:23:00,VALID,917.83,VALID,0,VALID,99.2462,VALID,0.0509425,VALID,19.9894,VALID,147,VALID,1.125,
2003-04-07, 01:24:00,VALID,917.791,VALID,0,VALID,99.2767,VALID,0.0339617,VALID,19.9958,VALID,99,VALID,0.712695,
2003-04-07, 01:25:00,VALID,917.768,VALID,0,VALID,99.3174,VALID,0.0339617,VALID,20.0125,VALID,87,VALID,0.153927,
2003-04-07, 01:26:00,VALID,917.742,VALID,0,VALID,99.2983,VALID,0.0339617,VALID,20.0023,VALID,86,VALID,0.325802,
2003-04-07, 01:27:00,VALID,917.707,VALID,0,VALID,99.2805,VALID,0.0169808,VALID,19.9961,VALID,86,VALID,0.157617,
2003-04-07, 01:28:00,VALID,917.704,VALID,0,VALID,99.278,VALID,0,VALID,19.9802,VALID,86,VALID,0.0241071,
2003-04-07, 01:29:00,VALID,917.692,VALID,0,VALID,99.325,VALID,0,VALID,19.9804,VALID,85,VALID,0.0558594,
2003-04-07, 01:30:00,VALID,917.689,VALID,0,VALID,99.3721,VALID,0.0169808,VALID,19.9966,VALID,42,VALID,0.265024,
2003-04-07, 01:31:00,VALID,917.665,VALID,0,VALID,99.3924,VALID,0,VALID,19.9956,VALID,42,VALID,0.236225,
2003-04-07, 01:32:00,VALID,917.667,VALID,0,VALID,99.3899,VALID,0,VALID,20.0222,VALID,42,VALID,0.412212,
2003-04-07, 01:33:00,VALID,917.636,VALID,0,VALID,99.3098,VALID,0.0169808,VALID,19.9797,VALID,126,VALID,0.556891,
2003-04-07, 01:34:00,VALID,917.619,VALID,0,VALID,99.3301,VALID,0,VALID,19.9735,VALID,144,VALID,0.557617,
2003-04-07, 01:35:00,VALID,917.603,VALID,0,VALID,99.3009,VALID,0,VALID,19.9603,VALID,128,VALID,0.804054,
2003-04-07, 01:36:00,VALID,917.561,VALID,0,VALID,99.2678,VALID,0.0509425,VALID,19.9282,VALID,112,VALID,0.720353,
2003-04-07, 01:37:00,VALID,917.544,VALID,0,VALID,99.2398,VALID,0.0169808,VALID,19.9028,VALID,95,VALID,0.703926,
2003-04-07, 01:38:00,VALID,917.525,VALID,0,VALID,99.2983,VALID,0.0679233,VALID,19.8725,VALID,70,VALID,0.526182,
2003-04-07, 01:39:00,VALID,917.499,VALID,0,VALID,99.3263,VALID,0.101885,VALID,19.8752,VALID,57,VALID,0.501056,
2003-04-07, 01:40:00,VALID,917.484,VALID,0,VALID,99.3149,VALID,0.101885,VALID,19.8556,VALID,65,VALID,0.455273,
2003-04-07, 01:41:00,VALID,917.467,VALID,0,VALID,99.2856,VALID,0.101885,VALID,19.8464,VALID,66,VALID,0.456112,
2003-04-07, 01:42:00,VALID,917.44,VALID,0,VALID,99.2551,VALID,0.0849042,VALID,19.8203,VALID,80,VALID,0.510896,
2003-04-07, 01:43:00,VALID,917.437,VALID,0,VALID,99.278,VALID,0.118866,VALID,19.8011,VALID,100,VALID,0.640425,
2003-04-07, 01:44:00,VALID,917.433,VALID,0,VALID,99.2615,VALID,0.0849042,VALID,19.7912,VALID,105,VALID,0.809416,
2003-04-07, 01:45:00,VALID,917.435,VALID,0,VALID,99.2157,VALID,0.118866,VALID,19.7847,VALID,95,VALID,0.904605,
2003-04-07, 01:46:00,VALID,917.425,VALID,0,VALID,99.2589,VALID,0.101885,VALID,19.7815,VALID,72,VALID,0.701219,
2003-04-07, 01:47:00,VALID,917.438,VALID,0,VALID,99.2297,VALID,0.101885,VALID,19.8046,VALID,89,VALID,1.04087,
2003-04-07, 01:48:00,VALID,917.458,VALID,0,VALID,99.1788,VALID,0.101885,VALID,19.8011,VALID,85,VALID,1.01809,
2003-04-07, 01:49:00,VALID,917.474,VALID,0,VALID,99.1813,VALID,0.101885,VALID,19.7984,VALID,100,VALID,0.614984,
2003-04-07, 01:50:00,VALID,917.48,VALID,0,VALID,99.1534,VALID,0,VALID,19.7962,VALID,138,VALID,1.03185,
2003-04-07, 01:51:00,VALID,917.461,VALID,0,VALID,99.1635,VALID,0,VALID,19.7964,VALID,119,VALID,0.8125,
2003-04-07, 01:52:00,VALID,917.462,VALID,0,VALID,99.1292,VALID,0.0169808,VALID,19.7929,VALID,106,VALID,0.849507,
2003-04-07, 01:53:00,VALID,917.447,VALID,0,VALID,99.133,VALID,0.0679233,VALID,19.779,VALID,142,VALID,0.493832,
2003-04-07, 01:54:00,VALID,917.454,VALID,0,VALID,99.1801,VALID,0.101885,VALID,19.785,VALID,103,VALID,0.382583,
2003-04-07, 01:55:00,VALID,917.429,VALID,0,VALID,99.1635,VALID,0.118866,VALID,19.7947,VALID,120,VALID,0.535742,
2003-04-07, 01:56:00,VALID,917.424,VALID,0,VALID,99.1318,VALID,0.118866,VALID,19.7718,VALID,148,VALID,0.685238,
2003-04-07, 01:57:00,VALID,917.428,VALID,0,VALID,99.1406,VALID,0.0849042,VALID,19.7822,VALID,141,VALID,0.664063,
2003-04-07, 01:58:00,VALID,917.429,VALID,0,VALID,99.1686,VALID,0.118866,VALID,19.7788,VALID,148,VALID,0.784628,
2003-04-07, 01:59:00,VALID,917.401,VALID,0,VALID,99.1496,VALID,0.118866,VALID,19.7726,VALID,150,VALID,0.986523,
2003-04-07, 02:00:00,VALID,917.392,VALID,0,VALID,99.1623,VALID,0.101885,VALID,19.7527,VALID,150,VALID,0.825391,
2003-04-07, 02:01:00,VALID,917.395,VALID,0,VALID,99.1686,VALID,0.101885,VALID,19.736,VALID,157,VALID,0.942508,
2003-04-07, 02:02:00,VALID,917.377,VALID,0,VALID,99.203,VALID,0.118866,VALID,19.743,VALID,180,VALID,0.647461,
2003-04-07, 02:03:00,VALID,917.366,VALID,0,VALID,99.25,VALID,0.101885,VALID,19.7494,VALID,165,VALID,0.513086,
2003-04-07, 02:04:00,VALID,917.36,VALID,0,VALID,99.2538,VALID,0.118866,VALID,19.7459,VALID,176,VALID,0.449747,
2003-04-07, 02:05:00,VALID,917.37,VALID,0,VALID,99.2182,VALID,0.118866,VALID,19.7499,VALID,157,VALID,1.03927,
2003-04-07, 02:06:00,VALID,917.37,VALID,0,VALID,99.2309,VALID,0.101885,VALID,19.7335,VALID,152,VALID,1.08613,
2003-04-07, 02:07:00,VALID,917.374,VALID,0,VALID,99.25,VALID,0.101885,VALID,19.7238,VALID,147,VALID,0.956696,
2003-04-07, 02:08:00,VALID,917.387,VALID,0,VALID,99.2716,VALID,0.0849042,VALID,19.7203,VALID,141,VALID,0.881641,
2003-04-07, 02:09:00,VALID,917.397,VALID,0,VALID,99.2564,VALID,0.0849042,VALID,19.6972,VALID,146,VALID,0.958133,
2003-04-07, 02:10:00,VALID,917.413,VALID,0,VALID,99.2729,VALID,0.0849042,VALID,19.6878,VALID,160,VALID,0.657895,
2003-04-07, 02:11:00,VALID,917.4,VALID,0,VALID,99.2869,VALID,0.0679233,VALID,19.6915,VALID,152,VALID,0.609581,
2003-04-07, 02:12:00,VALID,917.384,VALID,0,VALID,99.3098,VALID,0.0509425,VALID,19.6816,VALID,146,VALID,0.0807292,
2003-04-07, 02:13:00,VALID,917.369,VALID,0,VALID,99.353,VALID,0.0849042,VALID,19.6883,VALID,147,VALID,0.0410156,
2003-04-07, 02:14:00,VALID,917.347,VALID,0,VALID,99.3861,VALID,0.101885,VALID,19.7009,VALID,65,VALID,0.163218,
2003-04-07, 02:15:00,VALID,917.324,VALID,0,VALID,99.4179,VALID,0.0679233,VALID,19.7171,VALID,359,VALID,0.239984,
2003-04-07, 02:16:00,VALID,917.304,VALID,0,VALID,99.4408,VALID,0,VALID,19.7432,VALID,359,VALID,0.351362,
2003-04-07, 02:17:00,VALID,917.281,VALID,0,VALID,99.4458,VALID,0.0509425,VALID,19.7594,VALID,360,VALID,0.380912,
2003-04-07, 02:18:00,VALID,917.255,VALID,0,VALID,99.4585,VALID,0.0339617,VALID,19.7589,VALID,360,VALID,0.297086,
2003-04-07, 02:19:00,VALID,917.247,VALID,0,VALID,99.4408,VALID,0.0339617,VALID,19.7691,VALID,360,VALID,0.578516,
2003-04-07, 02:20:00,VALID,917.228,VALID,0,VALID,99.4217,VALID,0,VALID,19.7599,VALID,3,VALID,0.849265,
2003-04-07, 02:21:00,VALID,917.208,VALID,0,VALID,99.3784,VALID,0.0849042,VALID,19.733,VALID,357,VALID,0.843544,
2003-04-07, 02:22:00,VALID,917.199,VALID,0,VALID,99.2869,VALID,0.0509425,VALID,19.6848,VALID,348,VALID,0.738982,
2003-04-07, 02:23:00,VALID,917.192,VALID,0,VALID,99.2856,VALID,0,VALID,19.6589,VALID,343,VALID,0.45477,
2003-04-07, 02:24:00,VALID,917.174,VALID,0,VALID,99.3085,VALID,0.0339617,VALID,19.6497,VALID,339,VALID,0.464227,
2003-04-07, 02:25:00,VALID,917.151,VALID,0,VALID,99.3047,VALID,0.0339617,VALID,19.6495,VALID,316,VALID,0.432736,
2003-04-07, 02:26:00,VALID,917.122,VALID,0,VALID,99.3365,VALID,0.0509425,VALID,19.643,VALID,316,VALID,0.115785,
2003-04-07, 02:27:00,VALID,917.12,VALID,0,VALID,99.3632,VALID,0.0169808,VALID,19.6492,VALID,316,VALID,0.0343339,
2003-04-07, 02:28:00,VALID,917.098,VALID,0,VALID,99.3962,VALID,0.0339617,VALID,19.6525,VALID,330,VALID,0.183494,
2003-04-07, 02:29:00,VALID,917.078,VALID,0,VALID,99.4331,VALID,0.0509425,VALID,19.6813,VALID,2,VALID,0.416066,
2003-04-07, 02:30:00,VALID,917.043,VALID,0,VALID,99.4662,VALID,0.0169808,VALID,19.7203,VALID,4,VALID,0.210337,
2003-04-07, 02:31:00,VALID,917.029,VALID,0,VALID,99.4789,VALID,0.0339617,VALID,19.7427,VALID,15,VALID,0.704975,
2003-04-07, 02:32:00,VALID,917.03,VALID,0,VALID,99.4802,VALID,0,VALID,19.7589,VALID,23,VALID,0.602179,
2003-04-07, 02:33:00,VALID,917.028,VALID,0,VALID,99.4942,VALID,0.0339617,VALID,19.7658,VALID,20,VALID,0.527344,
2003-04-07, 02:34:00,VALID,917.028,VALID,0,VALID,99.4547,VALID,0.0509425,VALID,19.73,VALID,356,VALID,0.560938,
2003-04-07, 02:35:00,VALID,917.029,VALID,0,VALID,99.4344,VALID,0.0679233,VALID,19.7109,VALID,356,VALID,0.405016,
2003-04-07, 02:36:00,VALID,917.028,VALID,0,VALID,99.456,VALID,0.0509425,VALID,19.7236,VALID,356,VALID,0.0729167,
2003-04-07, 02:37:00,VALID,917.012,VALID,0,VALID,99.4725,VALID,0.0679233,VALID,19.7139,VALID,325,VALID,0.452172,
2003-04-07, 02:38:00,VALID,917.005,VALID,0,VALID,99.4293,VALID,0.0849042,VALID,19.688,VALID,335,VALID,0.658984,
2003-04-07, 02:39:00,VALID,916.975,VALID,0,VALID,99.3937,VALID,0.0339617,VALID,19.6654,VALID,5,VALID,0.413672,
2003-04-07, 02:40:00,VALID,916.981,VALID,0,VALID,99.4357,VALID,0.0339617,VALID,19.6619,VALID,13,VALID,0.631811,
2003-04-07, 02:41:00,VALID,916.999,VALID,0.2,VALID,99.4573,VALID,0.0339617,VALID,19.6783,VALID,11,VALID,0.630469,
2003-04-07, 02:42:00,VALID,916.99,VALID,0,VALID,99.4611,VALID,0.0679233,VALID,19.6589,VALID,5,VALID,0.394531,
2003-04-07, 02:43:00,VALID,917.005,VALID,0,VALID,99.47,VALID,0.0339617,VALID,19.6651,VALID,15,VALID,0.483319,
2003-04-07, 02:44:00,VALID,917.001,VALID,0,VALID,99.5031,VALID,0.0509425,VALID,19.688,VALID,17,VALID,0.974029,
2003-04-07, 02:45:00,VALID,917,VALID,0,VALID,99.5209,VALID,0.0509425,VALID,19.6975,VALID,28,VALID,0.621289,
2003-04-07, 02:46:00,VALID,917.013,VALID,0,VALID,99.5298,VALID,0.0509425,VALID,19.7174,VALID,27,VALID,0.131027,
2003-04-07, 02:47:00,VALID,917.015,VALID,0,VALID,99.5323,VALID,0.0849042,VALID,19.694,VALID,27,VALID,0.155664,
2003-04-07, 02:48:00,VALID,917.033,VALID,0,VALID,99.5234,VALID,0.0679233,VALID,19.691,VALID,27,VALID,0.0176282,
2003-04-07, 02:49:00,VALID,917.047,VALID,0,VALID,99.5323,VALID,0.0169808,VALID,19.6947,VALID,27,VALID,0.115543,
2003-04-07, 02:50:00,VALID,917.055,VALID,0,VALID,99.5488,VALID,0.0169808,VALID,19.7106,VALID,27,VALID,0.340872,
2003-04-07, 02:51:00,VALID,917.057,VALID,0,VALID,99.5565,VALID,0.0509425,VALID,19.7268,VALID,27,VALID,0.0933494,
2003-04-07, 02:52:00,VALID,917.037,VALID,0,VALID,99.573,VALID,0.0679233,VALID,19.7136,VALID,27,VALID,0.215234,
2003-04-07, 02:53:00,VALID,917.017,VALID,0,VALID,99.573,VALID,0.0339617,VALID,19.7206,VALID,14,VALID,0.339316,
2003-04-07, 02:54:00,VALID,916.993,VALID,0,VALID,99.5666,VALID,0.0849042,VALID,19.7074,VALID,7,VALID,0.507011,
2003-04-07, 02:55:00,VALID,916.971,VALID,0,VALID,99.5552,VALID,0.0679233,VALID,19.7009,VALID,7,VALID,0.837941,
2003-04-07, 02:56:00,VALID,916.932,VALID,0,VALID,99.5476,VALID,0.0169808,VALID,19.6686,VALID,11,VALID,0.94109,
2003-04-07, 02:57:00,VALID,916.9,VALID,0,VALID,99.5425,VALID,0.0849042,VALID,19.6589,VALID,12,VALID,1.2065,
2003-04-07, 02:58:00,VALID,916.849,VALID,0,VALID,99.5476,VALID,0.0169808,VALID,19.6622,VALID,14,VALID,1.36582,
2003-04-07, 02:59:00,VALID,916.805,VALID,0,VALID,99.5514,VALID,0.0509425,VALID,19.6492,VALID,360,VALID,1.26631,
2003-04-07, 03:00:00,VALID,916.76,VALID,0,VALID,99.5654,VALID,0.0849042,VALID,19.6522,VALID,18,VALID,1.21176,
2003-04-07, 03:01:00,VALID,916.751,VALID,0,VALID,99.5641,VALID,0.0849042,VALID,19.6356,VALID,9,VALID,1.63281,
2003-04-07, 03:02:00,VALID,916.744,VALID,0,VALID,99.5781,VALID,0.0339617,VALID,19.6358,VALID,19,VALID,1.21649,
2003-04-07, 03:03:00,VALID,916.755,VALID,0,VALID,99.5972,VALID,0.0679233,VALID,19.6356,VALID,17,VALID,1.01665,
2003-04-07, 03:04:00,VALID,916.784,VALID,0,VALID,99.6124,VALID,0.0679233,VALID,19.6522,VALID,338,VALID,0.517531,
2003-04-07, 03:05:00,VALID,916.83,VALID,0,VALID,99.6073,VALID,0.0509425,VALID,19.6234,VALID,321,VALID,0.0925481,
2003-04-07, 03:06:00,VALID,916.853,VALID,0,VALID,99.5972,VALID,0.0679233,VALID,19.6139,VALID,344,VALID,0.123972,
2003-04-07, 03:07:00,VALID,916.886,VALID,0,VALID,99.601,VALID,0.0339617,VALID,19.604,VALID,25,VALID,0.539063,
2003-04-07, 03:08:00,VALID,916.906,VALID,0,VALID,99.6086,VALID,0.0169808,VALID,19.5816,VALID,5,VALID,0.210938,
2003-04-07, 03:09:00,VALID,916.923,VALID,0,VALID,99.6175,VALID,0,VALID,19.5784,VALID,4,VALID,0.0606971,
2003-04-07, 03:10:00,VALID,916.955,VALID,0,VALID,99.6251,VALID,0.0169808,VALID,19.5789,VALID,4,VALID,0.0174753,
2003-04-07, 03:11:00,VALID,916.978,VALID,0,VALID,99.6302,VALID,0.0169808,VALID,19.5654,VALID,4,VALID,0.146793,
2003-04-07, 03:12:00,VALID,916.973,VALID,0,VALID,99.6213,VALID,0,VALID,19.5557,VALID,111,VALID,0.366268,
2003-04-07, 03:13:00,VALID,916.975,VALID,0,VALID,99.6264,VALID,-0.0169808,VALID,19.5465,VALID,138,VALID,0.244531,
2003-04-07, 03:14:00,VALID,916.975,VALID,0,VALID,99.6378,VALID,0,VALID,19.553,VALID,140,VALID,0.0986842,
2003-04-07, 03:15:00,VALID,916.973,VALID,0,VALID,99.6455,VALID,0,VALID,19.5458,VALID,186,VALID,0.171007,
2003-04-07, 03:16:00,VALID,916.949,VALID,0,VALID,99.6518,VALID,0,VALID,19.5463,VALID,186,VALID,0.000422297,
2003-04-07, 03:17:00,VALID,916.915,VALID,0,VALID,99.6633,VALID,0,VALID,19.5361,VALID,186,VALID,0.0503906,
2003-04-07, 03:18:00,VALID,916.866,VALID,0,VALID,99.6811,VALID,0,VALID,19.5525,VALID,296,VALID,0.460156,
2003-04-07, 03:19:00,VALID,916.833,VALID,0,VALID,99.6862,VALID,0.0169808,VALID,19.5625,VALID,353,VALID,0.422676,
2003-04-07, 03:20:00,VALID,916.792,VALID,0,VALID,99.6836,VALID,0.0169808,VALID,19.5692,VALID,17,VALID,0.495313,
2003-04-07, 03:21:00,VALID,916.781,VALID,0,VALID,99.6989,VALID,0.0169808,VALID,19.5786,VALID,17,VALID,0.174219,
2003-04-07, 03:22:00,VALID,916.783,VALID,0,VALID,99.7065,VALID,0,VALID,19.598,VALID,17,VALID,0.0430743,
2003-04-07, 03:23:00,VALID,916.791,VALID,0,VALID,99.7027,VALID,-0.0339617,VALID,19.5925,VALID,17,VALID,0.00844595,
2003-04-07, 03:24:00,VALID,916.816,VALID,0,VALID,99.7154,VALID,-0.101885,VALID,19.5838,VALID,17,VALID,0.279687,
2003-04-07, 03:25:00,VALID,916.819,VALID,0,VALID,99.7052,VALID,-0.101885,VALID,19.5769,VALID,22,VALID,0.327009,
2003-04-07, 03:26:00,VALID,916.833,VALID,0,VALID,99.7014,VALID,-0.101885,VALID,19.5769,VALID,39,VALID,0.22832,
2003-04-07, 03:27:00,VALID,916.825,VALID,0,VALID,99.6785,VALID,-0.101885,VALID,19.547,VALID,47,VALID,0.279247,
2003-04-07, 03:28:00,VALID,916.825,VALID,0,VALID,99.6658,VALID,-0.101885,VALID,19.5284,VALID,47,VALID,0.116982,
2003-04-07, 03:29:00,VALID,916.843,VALID,0,VALID,99.6633,VALID,-0.0679233,VALID,19.4859,VALID,56,VALID,0.26398,
2003-04-07, 03:30:00,VALID,916.842,VALID,0,VALID,99.6595,VALID,-0.101885,VALID,19.4767,VALID,117,VALID,0.397636,
2003-04-07, 03:31:00,VALID,916.846,VALID,0,VALID,99.6582,VALID,-0.0509425,VALID,19.4603,VALID,143,VALID,0.598437,
2003-04-07, 03:32:00,VALID,916.855,VALID,0,VALID,99.6722,VALID,-0.0849042,VALID,19.4608,VALID,144,VALID,0.645059,
2003-04-07, 03:33:00,VALID,916.863,VALID,0,VALID,99.6709,VALID,-0.101885,VALID,19.4384,VALID,144,VALID,0.626803,
2003-04-07, 03:34:00,VALID,916.865,VALID,0,VALID,99.6785,VALID,-0.101885,VALID,19.4347,VALID,143,VALID,0.63141,